SCP
0 0 0 1 0 0 0 1 0 1 1 2 2 3 3 3 3 3 3 3 3 3 3 3 4 4 5 5 6 6 6 6 6 6 5 4 3 4 4 4 4 3 3 3
0 0 0 1 1 1 1 1 1 1 1 2 2 3 2 2 2 2 3 3 3 3 3 4 4 5 6 7 7 8 8 7 7 7 6 5 4 5 5 5 5 4 4 3
0 0 0 1 1 1 1 1 1 1 1 2 2 2 2 2 2 2 3 3 4 4 4 5 5 6 8 9 9 10 10 9 10 9 8 7 6 6 6 7 6 5 4 4
0 0 0 1 1 1 1 1 1 1 1 2 2 2 2 2 2 2 3 3 4 5 5 5 6 7 8 9 10 10 10 11 11 10 10 9 8 8 7 7 6 5 5 4
0 0 1 1 1 1 1 1 1 1 1 2 2 2 2 2 2 3 3 4 5 5 6 6 6 6 7 8 8 9 10 10 10 10 10 9 9 8 7 6 5 4 4 4
0 0 1 1 1 1 2 2 1 1 2 2 2 2 2 2 3 3 3 4 5 6 6 6 6 7 7 6 6 7 9 10 10 11 11 10 8 7 5 4 4 3 4 4
1 0 1 1 1 1 1 2 2 1 2 2 2 2 2 3 3 3 4 4 4 5 6 6 7 8 8 7 7 8 9 10 11 12 11 10 8 6 4 4 4 4 5 5
1 1 1 1 1 1 1 2 2 2 2 3 3 3 3 3 3 3 3 3 4 5 6 8 9 10 11 10 10 10 11 10 11 12 12 10 9 7 5 4 5 5 6 6
1 1 1 1 2 2 2 2 2 3 3 3 4 3 3 4 3 3 3 4 5 7 9 10 11 12 13 13 12 12 11 10 10 11 11 9 8 8 7 6 6 6 5 4
1 1 2 2 2 2 2 2 3 3 4 4 4 4 4 4 4 3 4 5 7 10 12 14 14 14 13 13 12 12 11 10 10 11 10 8 7 6 7 7 7 5 4 3
1 1 2 2 2 2 2 2 3 3 4 4 4 4 4 5 4 5 5 6 8 10 13 16 17 15 12 12 11 11 11 11 11 10 8 7 5 5 5 5 4 3 2 2
1 2 2 2 1 2 2 2 3 3 4 4 4 4 4 5 5 5 5 5 6 7 10 13 15 13 11 10 11 11 10 10 10 9 7 6 5 4 3 2 1 1 1 1
2 2 2 2 2 2 2 2 3 3 3 3 3 3 4 5 5 5 4 4 4 4 5 8 11 11 11 10 10 10 9 8 7 6 5 5 4 4 3 2 1 1 0 0
2 2 2 2 2 2 2 2 2 2 3 3 3 4 4 4 4 4 3 3 2 2 3 4 7 9 10 10 9 8 7 6 5 4 4 4 4 4 4 3 2 2 1 0
1 1 1 1 1 1 1 1 1 2 2 3 3 4 4 4 3 3 3 2 2 2 2 2 4 6 8 7 7 6 5 4 4 4 3 3 4 4 4 4 4 3 2 1
1 1 1 1 1 1 1 1 1 1 2 2 3 3 4 3 3 3 3 2 2 2 2 2 2 4 5 5 4 4 3 2 2 3 3 3 4 4 4 4 4 3 2 1
1 1 1 1 1 1 1 1 1 1 1 2 2 3 3 3 3 3 3 3 3 3 2 2 2 3 3 3 2 2 2 2 2 2 3 3 3 3 3 3 2 2 1 1
1 1 1 1 1 1 1 1 1 1 1 1 2 3 3 3 3 3 3 3 3 3 3 2 2 2 2 2 1 1 2 2 2 2 2 2 2 2 2 2 2 1 1 1
1 1 1 1 1 1 1 1 1 1 1 1 2 2 2 2 2 2 2 2 2 3 3 2 2 2 2 1 1 1 1 1 2 1 1 1 2 2 2 2 1 1 1 1
1 1 1 1 1 1 1 1 1 1 1 1 1 1 2 2 2 1 1 1 2 2 2 1 1 1 1 1 0 0 0 0 1 0 0 1 1 1 1 1 1 1 2 2
1 1 1 1 1 1 1 0 0 0 1 1 1 1 2 2 2 1 1 1 1 1 1 1 1 1 1 0 0 0 0 0 0 0 0 0 1 1 1 1 1 1 2 2
1 1 1 1 1 1 1 1 1 1 1 1 1 1 1 1 1 1 1 1 1 1 0 0 0 0 0 0 0 0 0 0 0 0 0 0 0 1 0 0 0 1 1 2
1 1 1 1 1 1 1 1 1 1 1 1 1 1 1 1 1 1 1 1 0 0 0 0 0 0 0 0 0 0 0 0 0 0 0 0 1 1 1 0 0 0 1 2
1 1 1 1 1 1 1 1 1 1 1 1 1 1 1 1 1 1 0 0 0 0 0 0 0 0 0 0 0 0 0 0 0 0 0 0 0 0 1 1 0 0 1 2
1 1 1 1 1 1 1 1 1 0 0 0 0 0 0 0 0 0 0 0 0 0 0 0 0 0 0 0 0 0 0 0 0 0 0 0 0 0 0 0 0 0 1 2
0 0 0 0 0 0 0 0 0 0 0 0 0 0 0 0 0 0 0 0 0 0 0 0 0 0 0 0 0 0 0 0 0 0 0 0 0 0 0 0 0 1 1 2
0 0 0 0 0 0 0 0 0 0 0 0 0 0 0 0 0 0 0 0 0 0 0 0 0 0 0 0 0 0 0 0 0 0 0 0 0 0 0 0 0 1 2 3
Wind_Speed
10 8 8 11 11 12 14 13 11 9 8 6 5 6 6 6 7 7 7 7 7 6 6 7 6 6 6 6 6 5 6 5 4 4 3 3 2 2 2 1 1 0 0 0
10 8 9 10 12 12 12 12 11 10 8 3 3 4 6 7 8 8 8 8 7 7 7 7 7 7 6 6 6 6 5 5 4 3 3 3 3 2 2 1 1 1 0 0
9 8 10 12 10 11 11 10 11 11 6 4 5 6 7 7 8 8 7 7 7 7 7 6 7 7 6 6 6 6 6 5 5 4 3 3 3 3 2 1 1 1 0 0
8 8 12 4 3 6 9 10 9 9 6 5 5 5 5 6 7 7 7 6 6 6 6 6 6 7 6 6 7 6 6 5 5 4 4 3 3 2 2 1 1 0 0 0
8 10 10 5 4 5 8 9 7 7 6 6 5 5 6 6 6 6 5 5 5 5 6 6 6 7 7 7 7 6 6 5 5 5 4 4 3 3 2 1 1 1 1 1
9 10 10 2 3 1 6 8 4 5 6 6 7 8 5 7 6 5 4 4 4 5 5 6 6 7 7 7 7 7 6 5 5 4 4 4 3 3 2 2 2 2 1 1
11 10 6 3 2 4 8 2 1 3 4 6 6 3 2 5 5 4 4 4 5 5 5 5 6 7 7 7 7 6 6 5 5 4 4 4 3 3 3 3 2 2 2 2
9 10 5 4 2 3 4 4 3 2 3 4 2 1 2 4 5 5 4 5 6 5 5 5 5 7 7 6 5 5 5 5 5 4 4 3 3 3 3 3 4 3 3 3
4 3 4 2 1 3 4 3 3 2 2 2 3 3 3 4 4 4 4 4 4 5 5 5 5 6 7 6 5 5 5 5 4 4 4 3 4 4 4 4 4 3 3 2
4 2 1 0 2 3 4 4 3 2 1 2 3 3 4 4 4 4 4 4 4 5 5 4 5 5 5 5 5 5 5 5 4 4 4 4 3 4 4 4 4 3 3 2
5 3 2 2 3 4 4 3 2 1 1 1 2 3 3 4 4 4 4 3 4 4 4 4 4 4 4 4 5 5 5 5 4 4 3 3 3 2 3 3 2 3 3 3
4 2 4 3 4 4 3 3 2 1 1 1 1 2 3 4 4 4 4 4 4 4 4 3 4 4 4 4 5 5 5 5 4 4 3 3 3 2 0 2 1 2 3 4
4 4 4 4 4 4 4 3 2 2 2 1 0 1 2 3 3 4 4 4 4 4 4 4 4 4 4 4 4 5 4 4 4 3 3 4 4 4 3 3 3 4 5 5
3 4 4 3 3 3 3 3 2 2 2 1 1 1 1 2 2 3 3 3 3 4 4 4 4 3 3 4 4 5 5 4 4 4 4 4 4 4 4 4 4 4 5 8
4 4 4 3 3 2 2 2 1 1 1 0 0 1 1 2 2 2 2 3 3 3 3 3 3 3 3 3 4 4 5 4 3 3 4 4 4 4 4 5 4 4 3 4
4 3 3 3 3 3 3 2 2 1 1 1 1 1 1 2 2 2 2 2 3 3 3 3 3 2 3 3 3 4 4 3 4 4 4 4 4 4 4 4 4 4 4 4
3 3 3 2 2 3 2 2 2 2 2 2 1 1 1 2 2 2 2 2 2 2 2 2 2 3 3 3 4 3 3 3 5 5 5 4 4 4 4 4 4 4 4 3
3 3 3 3 3 2 2 2 1 1 2 2 1 1 2 2 2 2 2 2 2 2 1 2 2 2 2 3 3 3 3 3 3 4 4 4 4 4 4 5 5 5 4 4
1 1 1 2 2 1 1 1 1 2 2 2 1 1 1 1 1 1 1 1 2 2 0 1 0 2 2 2 2 3 3 3 3 3 3 3 5 5 5 5 5 5 5 4
1 1 1 1 1 0 1 1 1 2 2 1 1 1 1 1 1 1 2 2 1 1 0 0 2 2 2 2 3 3 2 3 3 3 4 4 4 5 5 5 5 5 5 5
1 1 1 1 1 1 1 1 1 1 1 1 0 0 0 1 1 1 1 1 0 1 1 2 3 2 2 1 4 3 3 3 4 4 4 4 5 5 5 5 5 4 5 5
2 1 1 1 1 1 1 1 1 1 1 1 1 0 1 1 1 1 1 1 1 1 2 2 2 0 1 2 3 3 3 3 3 4 4 4 4 4 4 4 4 4 4 4
1 1 1 1 1 1 1 0 1 1 1 1 1 1 1 2 1 1 1 1 2 1 2 1 0 1 1 4 3 3 3 3 3 3 3 3 4 4 4 4 4 4 4 4
1 1 1 0 1 0 0 1 1 0 0 0 0 1 1 1 1 1 1 0 1 2 2 1 3 3 4 4 3 3 3 3 3 3 3 3 3 4 4 4 4 4 4 5
0 0 0 1 1 0 0 0 0 1 1 0 0 0 1 1 1 1 0 0 0 2 1 2 4 4 4 2 2 2 3 3 3 4 4 4 4 4 4 4 4 4 4 5
0 0 0 0 1 1 0 0 1 0 0 0 0 1 1 0 1 0 0 0 0 1 1 0 1 2 2 1 2 2 3 2 3 3 4 4 4 4 4 4 5 4 4 4
1 1 0 0 0 1 1 1 1 1 1 1 1 1 1 1 1 1 1 1 1 0 1 1 1 1 1 1 2 2 2 2 3 3 3 3 3 3 3 4 4 4 4 4
Wind_Direction
263 271 251 236 230 229 237 251 257 254 248 236 210 199 189 181 177 179 181 179 178 176 171 174 176 175 173 171 171 168 168 162 156 153 147 139 135 126 118 110 108 69 49 79
248 243 244 244 235 232 237 244 252 253 252 226 210 190 185 187 184 189 190 186 182 180 174 176 177 178 173 171 170 168 163 156 149 149 149 146 149 146 128 104 59 60 45 26
243 233 242 238 230 230 234 240 249 253 251 209 208 203 200 193 192 193 190 187 186 184 181 179 180 176 174 171 168 164 163 159 157 159 157 156 157 143 130 118 96 72 19 324
245 230 235 223 213 240 243 245 249 257 250 229 226 215 206 204 199 194 190 188 186 182 176 178 178 174 172 171 169 167 168 167 162 163 163 159 155 145 144 140 133 115 300 327
242 237 237 200 198 225 244 249 247 249 244 229 209 211 207 205 206 198 191 184 181 179 175 175 176 174 171 173 173 175 174 171 169 169 167 166 164 166 170 170 166 200 206 236
239 248 244 193 131 246 257 239 221 241 237 215 202 222 201 180 187 188 184 176 172 171 171 171 172 173 175 177 180 181 176 172 171 174 177 180 178 184 183 192 202 215 190 219
240 246 249 46 108 211 236 280 17 256 236 209 215 269 107 151 167 170 169 169 169 170 172 170 172 174 180 183 185 181 176 174 175 180 188 192 187 196 205 214 213 224 209 212
234 242 236 74 182 245 344 354 328 291 248 218 202 169 157 165 166 168 170 175 176 173 171 167 173 179 183 188 186 181 179 179 183 191 203 188 191 203 209 216 215 213 207 218
255 269 41 52 11 4 333 320 320 301 255 215 199 188 180 170 169 172 171 175 178 174 170 170 179 188 187 185 183 179 180 182 187 195 204 203 207 208 207 209 228 224 222 221
235 219 248 298 314 322 322 316 309 303 267 219 207 193 180 172 165 167 167 169 172 173 174 176 186 191 185 182 182 182 187 189 193 200 207 205 217 221 221 219 225 230 235 243
240 250 256 256 316 323 319 310 300 313 300 264 200 191 185 174 170 166 161 165 169 170 173 176 181 180 183 184 185 191 196 199 203 206 205 211 215 234 241 242 259 260 262 260
276 297 285 294 312 315 302 297 298 294 283 267 233 197 179 168 165 164 163 164 168 173 179 180 180 182 190 192 192 196 202 207 210 211 209 220 214 211 193 238 156 216 258 270
290 300 304 300 308 311 306 309 317 309 304 302 267 186 171 166 171 171 163 164 171 179 184 189 189 189 194 199 198 203 214 219 221 219 218 226 227 226 224 205 195 211 226 230
272 277 279 287 295 305 310 319 332 336 339 332 308 207 175 166 169 167 162 169 177 180 184 190 190 194 199 202 205 209 219 215 223 225 228 233 235 236 235 238 225 216 211 209
283 282 274 283 286 294 304 293 296 324 342 28 152 219 195 173 166 156 159 168 175 185 189 192 194 201 207 210 219 222 227 226 228 233 234 238 239 241 242 242 246 244 236 201
278 273 258 256 266 277 284 283 289 304 300 248 206 203 206 186 172 161 167 178 191 205 204 207 212 217 219 219 231 233 231 222 239 244 237 236 240 243 245 245 247 251 250 253
262 256 256 260 264 271 283 293 298 307 300 276 257 231 204 197 186 182 194 204 205 213 224 226 228 231 220 215 228 238 239 216 215 234 237 238 238 241 244 247 248 250 256 261
273 265 268 273 278 288 295 296 304 313 307 295 267 238 214 208 210 204 209 205 199 198 216 244 248 244 226 224 234 242 239 241 239 236 236 240 245 244 243 243 244 245 248 237
296 262 275 285 283 279 291 305 315 317 309 297 292 274 239 214 212 214 209 214 220 221 249 336 239 238 242 241 255 246 247 248 244 238 242 243 248 251 250 250 250 247 246 249
20 43 45 8 9 347 318 322 326 320 314 303 285 262 221 190 204 202 192 212 227 257 334 348 256 248 237 219 244 247 241 244 247 243 243 242 243 245 247 251 253 250 250 251
26 48 64 63 64 45 17 352 345 344 348 329 306 273 233 188 195 212 229 236 261 272 226 212 239 241 234 225 238 251 241 241 245 246 249 251 249 251 253 252 252 255 257 258
17 44 75 91 94 70 40 43 83 50 34 25 12 350 291 244 218 220 246 263 247 213 229 227 234 227 338 267 250 253 247 247 253 253 254 260 259 256 255 259 260 259 261 263
8 20 70 94 106 82 52 56 92 93 74 35 348 308 303 314 298 271 261 259 242 226 248 247 105 114 252 257 258 255 255 257 262 267 270 273 270 268 267 266 267 267 271 273
30 12 40 110 178 158 90 9 11 282 172 124 350 322 306 298 280 269 284 199 224 215 248 136 152 190 236 248 255 257 261 264 265 267 267 268 269 268 268 268 269 269 268 270
51 74 191 219 223 201 117 164 188 188 159 85 93 240 269 293 298 306 325 13 159 239 234 158 175 207 236 260 274 281 283 289 295 292 282 282 281 275 268 264 266 271 272 268
139 211 71 329 338 336 273 228 258 304 336 318 326 342 345 1 339 319 216 147 140 270 268 166 182 223 261 298 298 295 293 282 273 279 291 289 287 283 278 274 270 270 274 278
149 149 182 234 258 283 286 287 291 315 331 338 338 345 356 20 32 18 29 53 52 339 340 329 284 264 273 287 290 293 301 310 308 301 294 289 292 288 282 278 279 281 281 280